Time,TemperatureF,DewpointF,PressureIn,WindDirection,WindDirectionDegrees,WindSpeedMPH,WindSpeedGustMPH,Humidity,HourlyPrecipIn,Conditions,Clouds,dailyrainin,SolarRadiationWatts/m^2,SoftwareType,DateUTC
2013-03-21 00:00:00,32.5,27.7,29.69,SW,217,3.0,8.0,82,-99.99,,,-99.99,0.0,meteohub,2013-03-21 04:00:00,
2013-03-21 00:01:00,32.5,28.0,29.69,WSW,242,3.0,8.0,83,-99.99,,,-99.99,0.0,meteohub,2013-03-21 04:01:00,
2013-03-21 00:03:00,32.5,28.0,29.69,WSW,240,1.0,8.0,83,-99.99,,,-99.99,0.0,meteohub,2013-03-21 04:03:00,
2013-03-21 00:08:00,32.4,27.5,29.69,SW,235,2.0,8.0,82,-99.99,,,-99.99,0.0,meteohub,2013-03-21 04:08:00,
2013-03-21 00:13:00,32.4,27.9,29.69,SSW,210,0.0,8.0,83,-99.99,,,-99.99,0.0,meteohub,2013-03-21 04:13:00,
2013-03-21 00:18:00,32.2,27.3,29.69,SW,227,2.0,7.0,82,-99.99,,,-99.99,0.0,meteohub,2013-03-21 04:18:00,
2013-03-21 00:23:00,32.2,27.3,29.69,SW,232,4.0,7.0,82,-99.99,,,-99.99,0.0,meteohub,2013-03-21 04:23:00,
2013-03-21 00:28:00,32.2,27.3,29.69,West,276,0.0,7.0,82,-99.99,,,-99.99,0.0,meteohub,2013-03-21 04:28:00,
2013-03-21 00:33:00,32.0,27.1,29.69,SSE,151,0.0,8.0,82,-99.99,,,-99.99,0.0,meteohub,2013-03-21 04:33:00,
2013-03-21 00:39:00,31.8,27.3,29.69,South,170,2.0,8.0,83,-99.99,,,-99.99,0.0,meteohub,2013-03-21 04:39:00,
2013-03-21 00:44:00,31.6,27.1,29.69,SE,133,2.0,5.0,83,-99.99,,,-99.99,0.0,meteohub,2013-03-21 04:44:00,
2013-03-21 00:49:00,31.6,27.1,29.69,WSW,258,2.0,4.0,83,-99.99,,,-99.99,0.0,meteohub,2013-03-21 04:49:00,
2013-03-21 00:54:00,31.6,27.1,29.69,SSW,212,0.0,4.0,83,-99.99,,,-99.99,0.0,meteohub,2013-03-21 04:54:00,
2013-03-21 00:59:00,31.6,26.8,29.69,SSW,209,0.0,5.0,82,-99.99,,,-99.99,0.0,meteohub,2013-03-21 04:59:00,
2013-03-21 01:04:00,31.6,26.8,29.69,ESE,119,3.0,7.0,82,-99.99,,,-99.99,0.0,meteohub,2013-03-21 05:04:00,
2013-03-21 01:10:00,31.6,26.8,29.69,NW,316,4.0,7.0,82,-99.99,,,-99.99,0.0,meteohub,2013-03-21 05:10:00,
2013-03-21 01:15:00,31.6,26.8,29.69,SE,142,1.0,6.0,82,-99.99,,,-99.99,0.0,meteohub,2013-03-21 05:15:00,
2013-03-21 01:20:00,31.6,26.8,29.69,WSW,252,0.0,6.0,82,-99.99,,,-99.99,0.0,meteohub,2013-03-21 05:20:00,
2013-03-21 01:25:00,31.6,26.8,29.69,SW,227,5.0,6.0,82,-99.99,,,-99.99,0.0,meteohub,2013-03-21 05:25:00,
2013-03-21 01:30:00,31.6,26.4,29.69,South,169,2.0,6.0,81,-99.99,,,-99.99,0.0,meteohub,2013-03-21 05:30:00,
2013-03-21 01:35:00,31.5,26.2,29.69,East,84,1.0,6.0,81,-99.99,,,-99.99,0.0,meteohub,2013-03-21 05:35:00,
2013-03-21 01:41:00,31.5,26.6,29.70,ESE,104,0.0,6.0,82,-99.99,,,-99.99,0.0,meteohub,2013-03-21 05:41:00,
2013-03-21 01:47:00,31.3,26.1,29.70,SSW,196,1.0,5.0,81,-99.99,,,-99.99,0.0,meteohub,2013-03-21 05:47:00,
2013-03-21 01:52:00,31.3,26.4,29.70,SSE,167,0.0,5.0,82,-99.99,,,-99.99,0.0,meteohub,2013-03-21 05:52:00,
2013-03-21 01:57:00,31.3,26.1,29.70,West,277,1.0,5.0,81,-99.99,,,-99.99,0.0,meteohub,2013-03-21 05:57:00,
2013-03-21 02:02:00,31.5,26.2,29.70,ESE,112,0.0,5.0,81,-99.99,,,-99.99,0.0,meteohub,2013-03-21 06:02:00,
2013-03-21 02:07:00,31.5,26.1,29.70,SSE,152,1.0,7.0,80,-99.99,,,-99.99,0.0,meteohub,2013-03-21 06:07:00,
2013-03-21 02:12:00,31.5,26.1,29.70,SW,222,5.0,9.0,80,-99.99,,,-99.99,0.0,meteohub,2013-03-21 06:12:00,
2013-03-21 02:17:00,31.6,25.9,29.71,South,190,5.0,9.0,79,-99.99,,,-99.99,0.0,meteohub,2013-03-21 06:17:00,
2013-03-21 02:22:00,31.6,25.9,29.71,SW,234,1.0,9.0,79,-99.99,,,-99.99,0.0,meteohub,2013-03-21 06:22:00,
2013-03-21 02:28:00,31.5,26.1,29.71,SSE,151,2.0,8.0,80,-99.99,,,-99.99,0.0,meteohub,2013-03-21 06:28:00,
2013-03-21 02:33:00,31.5,26.1,29.71,SW,232,1.0,8.0,80,-99.99,,,-99.99,0.0,meteohub,2013-03-21 06:33:00,
2013-03-21 02:38:00,31.5,25.7,29.71,WSW,252,3.0,6.0,79,-99.99,,,-99.99,0.0,meteohub,2013-03-21 06:38:00,
2013-03-21 02:43:00,31.5,25.7,29.71,WSW,253,2.0,11.0,79,-99.99,,,-99.99,0.0,meteohub,2013-03-21 06:43:00,
2013-03-21 02:48:00,31.5,25.7,29.71,WSW,248,1.0,11.0,79,-99.99,,,-99.99,0.0,meteohub,2013-03-21 06:48:00,
2013-03-21 02:53:00,31.5,25.7,29.71,WSW,241,2.0,7.0,79,-99.99,,,-99.99,0.0,meteohub,2013-03-21 06:53:00,
2013-03-21 02:58:00,31.5,25.7,29.71,WSW,240,5.0,9.0,79,-99.99,,,-99.99,0.0,meteohub,2013-03-21 06:58:00,
2013-03-21 03:03:00,31.5,25.3,29.71,SE,128,3.0,9.0,78,-99.99,,,-99.99,0.0,meteohub,2013-03-21 07:03:00,
2013-03-21 03:08:00,31.5,25.7,29.71,West,261,3.0,9.0,79,-99.99,,,-99.99,0.0,meteohub,2013-03-21 07:08:00,
2013-03-21 03:13:00,31.5,25.7,29.71,WSW,239,1.0,9.0,79,-99.99,,,-99.99,0.0,meteohub,2013-03-21 07:13:00,
2013-03-21 03:18:00,31.3,25.5,29.71,WSW,246,0.0,9.0,79,-99.99,,,-99.99,0.0,meteohub,2013-03-21 07:18:00,
2013-03-21 03:24:00,31.3,25.5,29.71,West,265,1.0,7.0,79,-99.99,,,-99.99,0.0,meteohub,2013-03-21 07:24:00,
2013-03-21 03:29:00,31.1,25.3,29.71,West,274,2.0,6.0,79,-99.99,,,-99.99,0.0,meteohub,2013-03-21 07:29:00,
2013-03-21 03:34:00,31.3,25.5,29.71,West,277,5.0,6.0,79,-99.99,,,-99.99,0.0,meteohub,2013-03-21 07:34:00,
2013-03-21 03:39:00,31.1,25.3,29.71,SE,140,2.0,7.0,79,-99.99,,,-99.99,0.0,meteohub,2013-03-21 07:39:00,
2013-03-21 03:44:00,31.1,25.3,29.71,WSW,238,3.0,7.0,79,-99.99,,,-99.99,0.0,meteohub,2013-03-21 07:44:00,
2013-03-21 03:49:00,31.3,25.5,29.71,SW,234,3.0,7.0,79,-99.99,,,-99.99,0.0,meteohub,2013-03-21 07:49:00,
2013-03-21 03:55:00,31.5,26.1,29.71,West,259,1.0,7.0,80,-99.99,,,-99.99,0.0,meteohub,2013-03-21 07:55:00,
2013-03-21 04:00:00,31.3,25.9,29.71,SSW,213,4.0,7.0,80,-99.99,,,-99.99,0.0,meteohub,2013-03-21 08:00:00,
2013-03-21 04:05:00,31.3,25.2,29.71,SW,223,2.0,7.0,78,-99.99,,,-99.99,0.0,meteohub,2013-03-21 08:05:00,
2013-03-21 04:10:00,31.1,25.3,29.71,WSW,256,3.0,5.0,79,-99.99,,,-99.99,0.0,meteohub,2013-03-21 08:10:00,
2013-03-21 04:15:00,30.9,24.8,29.71,SW,219,3.0,5.0,78,-99.99,,,-99.99,0.0,meteohub,2013-03-21 08:15:00,
2013-03-21 04:20:00,30.7,25.0,29.72,West,261,0.0,5.0,79,-99.99,,,-99.99,0.0,meteohub,2013-03-21 08:20:00,
2013-03-21 04:25:00,30.6,25.2,29.72,West,271,2.0,5.0,80,-99.99,,,-99.99,0.0,meteohub,2013-03-21 08:25:00,
2013-03-21 04:31:00,30.6,25.2,29.72,WNW,284,0.0,5.0,80,-99.99,,,-99.99,0.0,meteohub,2013-03-21 08:31:00,
2013-03-21 04:36:00,30.6,24.8,29.72,SW,230,0.0,5.0,79,-99.99,,,-99.99,0.0,meteohub,2013-03-21 08:36:00,
2013-03-21 04:41:00,30.4,25.0,29.73,SSW,207,2.0,5.0,80,-99.99,,,-99.99,0.0,meteohub,2013-03-21 08:41:00,
2013-03-21 04:46:00,30.4,25.3,29.73,WSW,254,1.0,5.0,81,-99.99,,,-99.99,0.0,meteohub,2013-03-21 08:46:00,
2013-03-21 04:51:00,30.6,25.3,29.73,SSW,204,2.0,8.0,81,-99.99,,,-99.99,0.0,meteohub,2013-03-21 08:51:00,
2013-03-21 04:57:00,30.6,25.2,29.73,South,182,2.0,8.0,80,-99.99,,,-99.99,0.0,meteohub,2013-03-21 08:57:00,
2013-03-21 05:02:00,30.6,25.2,29.73,SSW,196,1.0,8.0,80,-99.99,,,-99.99,0.0,meteohub,2013-03-21 09:02:00,
2013-03-21 05:07:00,30.4,25.0,29.73,WSW,244,2.0,6.0,80,-99.99,,,-99.99,0.0,meteohub,2013-03-21 09:07:00,
2013-03-21 05:12:00,30.0,24.6,29.73,SSW,199,2.0,5.0,80,-99.99,,,-99.99,0.0,meteohub,2013-03-21 09:12:00,
2013-03-21 05:17:00,29.8,24.4,29.73,SW,234,0.0,5.0,80,-99.99,,,-99.99,0.0,meteohub,2013-03-21 09:17:00,
2013-03-21 05:22:00,29.8,24.4,29.73,SSW,210,0.0,5.0,80,-99.99,,,-99.99,0.0,meteohub,2013-03-21 09:22:00,
2013-03-21 05:27:00,29.7,24.3,29.73,SW,232,0.0,4.0,80,-99.99,,,-99.99,0.0,meteohub,2013-03-21 09:27:00,
2013-03-21 05:32:00,29.7,24.3,29.73,WSW,238,2.0,6.0,80,-99.99,,,-99.99,0.0,meteohub,2013-03-21 09:32:00,
2013-03-21 05:37:00,29.5,24.1,29.73,SSW,201,0.0,6.0,80,-99.99,,,-99.99,0.0,meteohub,2013-03-21 09:37:00,
2013-03-21 05:42:00,29.5,24.4,29.73,SE,138,2.0,8.0,81,-99.99,,,-99.99,0.0,meteohub,2013-03-21 09:42:00,
2013-03-21 05:47:00,29.5,24.4,29.73,West,265,0.0,8.0,81,-99.99,,,-99.99,0.0,meteohub,2013-03-21 09:47:00,
2013-03-21 05:52:00,29.5,24.4,29.73,North,5,0.0,8.0,81,-99.99,,,-99.99,0.0,meteohub,2013-03-21 09:52:00,
2013-03-21 05:57:00,29.5,24.4,29.74,WSW,252,0.0,4.0,81,-99.99,,,-99.99,0.0,meteohub,2013-03-21 09:57:00,
2013-03-21 06:02:00,29.3,24.3,29.74,WSW,248,0.0,3.0,81,-99.99,,,-99.99,0.0,meteohub,2013-03-21 10:02:00,
2013-03-21 06:07:00,29.3,24.3,29.74,East,92,1.0,5.0,81,-99.99,,,-99.99,0.0,meteohub,2013-03-21 10:07:00,
2013-03-21 06:12:00,29.3,24.3,29.74,ESE,103,0.0,5.0,81,-99.99,,,-99.99,0.0,meteohub,2013-03-21 10:12:00,
2013-03-21 06:17:00,29.5,24.4,29.74,South,170,1.0,5.0,81,-99.99,,,-99.99,0.0,meteohub,2013-03-21 10:17:00,
2013-03-21 06:22:00,29.3,24.3,29.74,SE,129,0.0,5.0,81,-99.99,,,-99.99,0.0,meteohub,2013-03-21 10:22:00,
2013-03-21 06:27:00,29.3,24.3,29.74,West,280,4.0,5.0,81,-99.99,,,-99.99,0.0,meteohub,2013-03-21 10:27:00,
2013-03-21 06:32:00,29.3,23.9,29.74,SSW,207,0.0,5.0,80,-99.99,,,-99.99,0.0,meteohub,2013-03-21 10:32:00,
2013-03-21 06:37:00,29.5,24.1,29.74,West,265,1.0,5.0,80,-99.99,,,-99.99,5.0,meteohub,2013-03-21 10:37:00,
2013-03-21 06:42:00,29.3,23.9,29.74,North,5,0.0,5.0,80,-99.99,,,-99.99,7.0,meteohub,2013-03-21 10:42:00,
2013-03-21 06:47:00,29.3,23.9,29.74,SSW,205,1.0,4.0,80,-99.99,,,-99.99,9.0,meteohub,2013-03-21 10:47:00,
2013-03-21 06:52:00,29.3,23.9,29.75,SW,221,2.0,5.0,80,-99.99,,,-99.99,12.0,meteohub,2013-03-21 10:52:00,
2013-03-21 06:57:00,29.3,23.9,29.75,SE,144,0.0,5.0,80,-99.99,,,-99.99,16.0,meteohub,2013-03-21 10:57:00,
2013-03-21 07:02:00,29.1,23.7,29.75,ESE,108,0.0,5.0,80,-99.99,,,-99.99,18.0,meteohub,2013-03-21 11:02:00,
2013-03-21 07:07:00,29.1,23.7,29.75,ESE,103,0.0,5.0,80,-99.99,,,-99.99,21.0,meteohub,2013-03-21 11:07:00,
2013-03-21 07:12:00,29.3,23.9,29.75,SW,221,0.0,5.0,80,-99.99,,,-99.99,23.0,meteohub,2013-03-21 11:12:00,
2013-03-21 07:16:00,29.5,24.1,29.75,SSE,159,0.0,6.0,80,-99.99,,,-99.99,30.0,meteohub,2013-03-21 11:16:00,
2013-03-21 07:22:00,29.5,24.1,29.75,SSW,194,1.0,6.0,80,-99.99,,,-99.99,79.0,meteohub,2013-03-21 11:22:00,
2013-03-21 07:27:00,29.7,23.9,29.75,SW,223,0.0,6.0,79,-99.99,,,-99.99,95.0,meteohub,2013-03-21 11:27:00,
2013-03-21 07:32:00,30.0,24.3,29.75,SW,219,0.0,5.0,79,-99.99,,,-99.99,97.0,meteohub,2013-03-21 11:32:00,
2013-03-21 07:37:00,30.4,24.3,29.75,SE,126,1.0,5.0,78,-99.99,,,-99.99,67.0,meteohub,2013-03-21 11:37:00,
2013-03-21 07:42:00,30.4,24.1,29.75,NE,53,0.0,4.0,77,-99.99,,,-99.99,35.0,meteohub,2013-03-21 11:42:00,
2013-03-21 07:47:00,30.4,24.1,29.75,SSW,204,0.0,5.0,77,-99.99,,,-99.99,39.0,meteohub,2013-03-21 11:47:00,
2013-03-21 07:52:00,30.2,23.9,29.75,West,267,0.0,5.0,77,-99.99,,,-99.99,39.0,meteohub,2013-03-21 11:52:00,
2013-03-21 07:57:00,30.2,24.3,29.75,ESE,112,0.0,4.0,78,-99.99,,,-99.99,76.0,meteohub,2013-03-21 11:57:00,
2013-03-21 08:02:00,30.4,24.1,29.75,West,267,2.0,5.0,77,-99.99,,,-99.99,183.0,meteohub,2013-03-21 12:02:00,
2013-03-21 08:08:00,30.4,24.1,29.75,West,261,0.0,5.0,77,-99.99,,,-99.99,105.0,meteohub,2013-03-21 12:08:00,
2013-03-21 08:13:00,30.6,23.9,29.75,SW,217,0.0,5.0,76,-99.99,,,-99.99,188.0,meteohub,2013-03-21 12:13:00,
2013-03-21 08:18:00,30.7,23.7,29.75,WSW,256,1.0,5.0,75,-99.99,,,-99.99,151.0,meteohub,2013-03-21 12:18:00,
2013-03-21 08:23:00,30.7,24.1,29.75,WSW,251,1.0,3.0,76,-99.99,,,-99.99,46.0,meteohub,2013-03-21 12:23:00,
2013-03-21 08:29:00,30.7,24.1,29.76,SSW,196,3.0,4.0,76,-99.99,,,-99.99,206.0,meteohub,2013-03-21 12:29:00,
2013-03-21 08:34:00,30.9,24.3,29.76,West,262,0.0,4.0,76,-99.99,,,-99.99,118.0,meteohub,2013-03-21 12:34:00,
2013-03-21 08:39:00,31.3,24.3,29.76,SW,223,1.0,4.0,75,-99.99,,,-99.99,111.0,meteohub,2013-03-21 12:39:00,
2013-03-21 08:44:00,31.5,24.1,29.76,South,186,1.0,5.0,74,-99.99,,,-99.99,83.0,meteohub,2013-03-21 12:44:00,
2013-03-21 08:49:00,31.6,23.9,29.76,East,95,1.0,5.0,73,-99.99,,,-99.99,155.0,meteohub,2013-03-21 12:49:00,
2013-03-21 08:54:00,31.8,24.1,29.75,SW,215,0.0,5.0,73,-99.99,,,-99.99,179.0,meteohub,2013-03-21 12:54:00,
2013-03-21 09:00:00,31.8,23.9,29.75,WSW,250,0.0,5.0,72,-99.99,,,-99.99,54.0,meteohub,2013-03-21 13:00:00,
2013-03-21 09:05:00,32.2,24.4,29.76,SE,134,0.0,5.0,73,-99.99,,,-99.99,183.0,meteohub,2013-03-21 13:05:00,
2013-03-21 09:10:00,32.5,24.3,29.76,West,259,1.0,4.0,71,-99.99,,,-99.99,86.0,meteohub,2013-03-21 13:10:00,
2013-03-21 09:15:00,32.7,24.4,29.75,South,183,1.0,4.0,71,-99.99,,,-99.99,267.0,meteohub,2013-03-21 13:15:00,
2013-03-21 09:20:00,32.9,24.3,29.75,SSE,160,0.0,3.0,70,-99.99,,,-99.99,417.0,meteohub,2013-03-21 13:20:00,
2013-03-21 09:25:00,32.9,24.3,29.75,SW,227,1.0,3.0,70,-99.99,,,-99.99,475.0,meteohub,2013-03-21 13:25:00,
2013-03-21 09:30:00,33.3,23.9,29.75,WSW,251,2.0,4.0,68,-99.99,,,-99.99,392.0,meteohub,2013-03-21 13:30:00,
2013-03-21 09:35:00,33.6,24.3,29.76,ESE,120,2.0,5.0,68,-99.99,,,-99.99,364.0,meteohub,2013-03-21 13:35:00,
2013-03-21 09:40:00,34.0,24.3,29.76,SSW,213,0.0,5.0,67,-99.99,,,-99.99,492.0,meteohub,2013-03-21 13:40:00,
2013-03-21 09:45:00,34.3,24.1,29.75,SE,128,3.0,4.0,66,-99.99,,,-99.99,504.0,meteohub,2013-03-21 13:45:00,
2013-03-21 09:51:00,34.7,24.4,29.76,SW,223,4.0,5.0,66,-99.99,,,-99.99,350.0,meteohub,2013-03-21 13:51:00,
2013-03-21 09:56:00,34.7,24.4,29.75,WSW,252,0.0,5.0,66,-99.99,,,-99.99,366.0,meteohub,2013-03-21 13:56:00,
2013-03-21 10:01:00,34.7,24.4,29.75,SW,220,2.0,5.0,66,-99.99,,,-99.99,330.0,meteohub,2013-03-21 14:01:00,
2013-03-21 10:07:00,34.5,24.3,29.75,South,169,0.0,5.0,66,-99.99,,,-99.99,81.0,meteohub,2013-03-21 14:07:00,
2013-03-21 10:12:00,34.7,24.4,29.75,SW,236,1.0,4.0,66,-99.99,,,-99.99,355.0,meteohub,2013-03-21 14:12:00,
2013-03-21 10:17:00,35.1,24.8,29.75,SSE,147,1.0,4.0,66,-99.99,,,-99.99,105.0,meteohub,2013-03-21 14:17:00,
2013-03-21 10:22:00,35.2,23.9,29.75,SSW,202,0.0,4.0,63,-99.99,,,-99.99,350.0,meteohub,2013-03-21 14:22:00,
2013-03-21 10:27:00,35.4,24.1,29.75,South,169,1.0,4.0,63,-99.99,,,-99.99,448.0,meteohub,2013-03-21 14:27:00,
2013-03-21 10:32:00,35.4,23.4,29.75,SSW,205,2.0,4.0,61,-99.99,,,-99.99,536.0,meteohub,2013-03-21 14:32:00,
2013-03-21 10:37:00,35.8,24.4,29.75,SE,127,1.0,7.0,63,-99.99,,,-99.99,647.0,meteohub,2013-03-21 14:37:00,
2013-03-21 10:42:00,36.0,24.3,29.75,SSW,201,3.0,7.0,62,-99.99,,,-99.99,272.0,meteohub,2013-03-21 14:42:00,
2013-03-21 10:47:00,36.1,24.1,29.75,East,99,2.0,5.0,61,-99.99,,,-99.99,258.0,meteohub,2013-03-21 14:47:00,
2013-03-21 10:52:00,36.7,24.1,29.75,South,184,1.0,6.0,60,-99.99,,,-99.99,483.0,meteohub,2013-03-21 14:52:00,
2013-03-21 10:58:00,36.7,24.4,29.75,ESE,111,1.0,6.0,61,-99.99,,,-99.99,352.0,meteohub,2013-03-21 14:58:00,
2013-03-21 11:03:00,36.9,23.9,29.75,ESE,108,2.0,7.0,59,-99.99,,,-99.99,464.0,meteohub,2013-03-21 15:03:00,
2013-03-21 11:08:00,36.9,24.6,29.75,South,180,2.0,7.0,61,-99.99,,,-99.99,754.0,meteohub,2013-03-21 15:08:00,
2013-03-21 11:13:00,37.0,24.1,29.75,SSE,157,1.0,6.0,59,-99.99,,,-99.99,636.0,meteohub,2013-03-21 15:13:00,
2013-03-21 11:19:00,37.0,23.7,29.75,SSE,161,1.0,6.0,58,-99.99,,,-99.99,615.0,meteohub,2013-03-21 15:19:00,
2013-03-21 11:24:00,37.6,24.1,29.75,South,171,2.0,7.0,58,-99.99,,,-99.99,663.0,meteohub,2013-03-21 15:24:00,
2013-03-21 11:29:00,37.8,24.3,29.75,East,84,2.0,7.0,58,-99.99,,,-99.99,726.0,meteohub,2013-03-21 15:29:00,
2013-03-21 11:34:00,37.8,24.3,29.75,South,170,2.0,7.0,58,-99.99,,,-99.99,513.0,meteohub,2013-03-21 15:34:00,
2013-03-21 11:39:00,37.6,23.7,29.75,SSE,163,1.0,5.0,57,-99.99,,,-99.99,541.0,meteohub,2013-03-21 15:39:00,
2013-03-21 11:44:00,37.4,24.4,29.75,South,172,0.0,5.0,59,-99.99,,,-99.99,367.0,meteohub,2013-03-21 15:44:00,
2013-03-21 11:49:00,37.4,24.8,29.75,South,180,1.0,5.0,60,-99.99,,,-99.99,408.0,meteohub,2013-03-21 15:49:00,
2013-03-21 11:54:00,37.6,25.0,29.75,SW,229,2.0,5.0,60,-99.99,,,-99.99,454.0,meteohub,2013-03-21 15:54:00,
2013-03-21 11:59:00,37.2,23.7,29.75,SW,225,3.0,5.0,58,-99.99,,,-99.99,570.0,meteohub,2013-03-21 15:59:00,
2013-03-21 12:05:00,37.4,24.4,29.75,WSW,238,1.0,5.0,59,-99.99,,,-99.99,587.0,meteohub,2013-03-21 16:05:00,
2013-03-21 12:10:00,37.9,24.4,29.74,SE,146,0.0,5.0,58,-99.99,,,-99.99,563.0,meteohub,2013-03-21 16:10:00,
2013-03-21 12:15:00,37.9,25.0,29.74,WSW,237,0.0,5.0,59,-99.99,,,-99.99,454.0,meteohub,2013-03-21 16:15:00,
2013-03-21 12:20:00,37.9,24.4,29.73,SSE,161,2.0,5.0,58,-99.99,,,-99.99,661.0,meteohub,2013-03-21 16:20:00,
2013-03-21 12:25:00,37.8,24.8,29.73,SSW,200,2.0,5.0,59,-99.99,,,-99.99,664.0,meteohub,2013-03-21 16:25:00,
2013-03-21 12:31:00,37.9,24.1,29.74,SSW,197,2.0,5.0,57,-99.99,,,-99.99,763.0,meteohub,2013-03-21 16:31:00,
2013-03-21 12:37:00,37.8,25.2,29.73,SSE,158,2.0,6.0,60,-99.99,,,-99.99,459.0,meteohub,2013-03-21 16:37:00,
2013-03-21 12:42:00,37.9,25.7,29.74,East,80,0.0,6.0,61,-99.99,,,-99.99,469.0,meteohub,2013-03-21 16:42:00,
2013-03-21 12:47:00,37.9,25.7,29.74,WNW,287,2.0,6.0,61,-99.99,,,-99.99,626.0,meteohub,2013-03-21 16:47:00,
2013-03-21 12:52:00,37.6,25.3,29.74,WNW,290,0.0,5.0,61,-99.99,,,-99.99,438.0,meteohub,2013-03-21 16:52:00,
2013-03-21 12:57:00,37.4,26.4,29.73,SSE,167,1.0,5.0,64,-99.99,,,-99.99,374.0,meteohub,2013-03-21 16:57:00,
2013-03-21 13:02:00,37.2,26.2,29.73,SSE,163,1.0,5.0,64,-99.99,,,-99.99,316.0,meteohub,2013-03-21 17:02:00,
2013-03-21 13:07:00,37.0,26.4,29.73,SW,218,0.0,5.0,65,-99.99,,,-99.99,341.0,meteohub,2013-03-21 17:07:00,
2013-03-21 13:12:00,36.7,26.8,29.73,SSW,211,1.0,4.0,67,-99.99,,,-99.99,394.0,meteohub,2013-03-21 17:12:00,
2013-03-21 13:17:00,36.9,27.0,29.72,ESE,117,0.0,4.0,67,-99.99,,,-99.99,415.0,meteohub,2013-03-21 17:17:00,
2013-03-21 13:22:00,37.2,27.3,29.72,West,267,0.0,4.0,67,-99.99,,,-99.99,420.0,meteohub,2013-03-21 17:22:00,
2013-03-21 13:27:00,37.6,28.0,29.72,WSW,250,3.0,4.0,68,-99.99,,,-99.99,339.0,meteohub,2013-03-21 17:27:00,
2013-03-21 13:32:00,37.6,28.0,29.71,WSW,238,1.0,5.0,68,-99.99,,,-99.99,387.0,meteohub,2013-03-21 17:32:00,
2013-03-21 13:37:00,37.9,28.4,29.70,SW,220,2.0,5.0,68,-99.99,,,-99.99,295.0,meteohub,2013-03-21 17:37:00,
2013-03-21 13:42:00,37.8,27.9,29.70,South,180,0.0,3.0,67,-99.99,,,-99.99,323.0,meteohub,2013-03-21 17:42:00,
2013-03-21 13:47:00,37.9,27.7,29.70,WSW,257,1.0,3.0,66,-99.99,,,-99.99,571.0,meteohub,2013-03-21 17:47:00,
2013-03-21 13:53:00,38.1,27.3,29.69,SW,215,1.0,3.0,65,-99.99,,,-99.99,589.0,meteohub,2013-03-21 17:53:00,
2013-03-21 13:58:00,38.1,27.9,29.70,WSW,251,1.0,3.0,66,-99.99,,,-99.99,396.0,meteohub,2013-03-21 17:58:00,
2013-03-21 14:03:00,38.5,27.7,29.70,WSW,244,0.0,4.0,65,-99.99,,,-99.99,531.0,meteohub,2013-03-21 18:03:00,
2013-03-21 14:08:00,38.5,27.0,29.70,ESE,123,2.0,5.0,63,-99.99,,,-99.99,306.0,meteohub,2013-03-21 18:08:00,
2013-03-21 14:13:00,38.1,25.9,29.69,SSE,152,1.0,5.0,61,-99.99,,,-99.99,308.0,meteohub,2013-03-21 18:13:00,
2013-03-21 14:18:00,37.9,25.7,29.69,ESE,108,2.0,6.0,61,-99.99,,,-99.99,294.0,meteohub,2013-03-21 18:18:00,
2013-03-21 14:24:00,37.6,25.3,29.68,ESE,119,0.0,7.0,61,-99.99,,,-99.99,258.0,meteohub,2013-03-21 18:24:00,
2013-03-21 14:29:00,37.8,26.2,29.68,ESE,118,0.0,7.0,63,-99.99,,,-99.99,383.0,meteohub,2013-03-21 18:29:00,
2013-03-21 14:34:00,37.9,25.7,29.68,ENE,74,1.0,7.0,61,-99.99,,,-99.99,251.0,meteohub,2013-03-21 18:34:00,
2013-03-21 14:39:00,37.9,25.3,29.69,SSE,153,0.0,3.0,60,-99.99,,,-99.99,206.0,meteohub,2013-03-21 18:39:00,
2013-03-21 14:44:00,37.8,25.2,29.69,ESE,116,0.0,5.0,60,-99.99,,,-99.99,186.0,meteohub,2013-03-21 18:44:00,
2013-03-21 14:49:00,37.6,24.1,29.68,SSE,159,0.0,5.0,58,-99.99,,,-99.99,202.0,meteohub,2013-03-21 18:49:00,
2013-03-21 14:54:00,37.2,23.7,29.68,South,171,0.0,5.0,58,-99.99,,,-99.99,188.0,meteohub,2013-03-21 18:54:00,
2013-03-21 14:59:00,37.2,24.6,29.68,East,96,0.0,3.0,60,-99.99,,,-99.99,221.0,meteohub,2013-03-21 18:59:00,
2013-03-21 15:05:00,37.0,24.1,29.68,ESE,117,1.0,5.0,59,-99.99,,,-99.99,200.0,meteohub,2013-03-21 19:05:00,
2013-03-21 15:10:00,37.2,24.6,29.68,ESE,123,0.0,5.0,60,-99.99,,,-99.99,251.0,meteohub,2013-03-21 19:10:00,
2013-03-21 15:15:00,37.4,23.5,29.68,SE,125,1.0,5.0,57,-99.99,,,-99.99,209.0,meteohub,2013-03-21 19:15:00,
2013-03-21 15:20:00,37.6,22.8,29.68,ESE,119,0.0,5.0,55,-99.99,,,-99.99,207.0,meteohub,2013-03-21 19:20:00,
2013-03-21 15:25:00,37.6,23.7,29.68,East,91,0.0,5.0,57,-99.99,,,-99.99,283.0,meteohub,2013-03-21 19:25:00,
2013-03-21 15:30:00,37.8,23.9,29.66,SSW,202,0.0,5.0,57,-99.99,,,-99.99,281.0,meteohub,2013-03-21 19:30:00,
2013-03-21 15:35:00,37.9,23.2,29.66,South,182,1.0,5.0,55,-99.99,,,-99.99,197.0,meteohub,2013-03-21 19:35:00,
2013-03-21 15:40:00,37.8,24.8,29.67,South,183,1.0,4.0,59,-99.99,,,-99.99,202.0,meteohub,2013-03-21 19:40:00,
2013-03-21 15:45:00,37.6,24.1,29.67,South,175,1.0,4.0,58,-99.99,,,-99.99,211.0,meteohub,2013-03-21 19:45:00,
2013-03-21 15:51:00,37.2,23.7,29.67,ESE,114,1.0,4.0,58,-99.99,,,-99.99,171.0,meteohub,2013-03-21 19:51:00,
2013-03-21 15:56:00,37.0,23.2,29.67,East,90,1.0,4.0,57,-99.99,,,-99.99,195.0,meteohub,2013-03-21 19:56:00,
2013-03-21 16:01:00,37.0,25.2,29.67,East,91,1.0,3.0,62,-99.99,,,-99.99,171.0,meteohub,2013-03-21 20:01:00,
2013-03-21 16:06:00,37.0,24.1,29.66,East,90,0.0,5.0,59,-99.99,,,-99.99,149.0,meteohub,2013-03-21 20:06:00,
2013-03-21 16:11:00,37.0,23.7,29.66,ESE,105,2.0,5.0,58,-99.99,,,-99.99,165.0,meteohub,2013-03-21 20:11:00,
2013-03-21 16:17:00,37.0,24.1,29.65,ESE,115,2.0,5.0,59,-99.99,,,-99.99,265.0,meteohub,2013-03-21 20:17:00,
2013-03-21 16:22:00,37.2,24.3,29.65,East,93,1.0,3.0,59,-99.99,,,-99.99,237.0,meteohub,2013-03-21 20:22:00,
2013-03-21 16:27:00,37.2,23.7,29.65,ENE,71,0.0,3.0,58,-99.99,,,-99.99,232.0,meteohub,2013-03-21 20:27:00,
2013-03-21 16:32:00,37.4,23.9,29.65,East,86,1.0,3.0,58,-99.99,,,-99.99,153.0,meteohub,2013-03-21 20:32:00,
2013-03-21 16:37:00,37.2,23.4,29.65,ENE,71,0.0,3.0,57,-99.99,,,-99.99,142.0,meteohub,2013-03-21 20:37:00,
2013-03-21 16:42:00,37.0,22.8,29.65,ENE,72,0.0,3.0,56,-99.99,,,-99.99,137.0,meteohub,2013-03-21 20:42:00,
2013-03-21 16:47:00,36.9,23.5,29.65,East,80,1.0,2.0,58,-99.99,,,-99.99,105.0,meteohub,2013-03-21 20:47:00,
2013-03-21 16:52:00,36.9,24.3,29.65,East,99,0.0,3.0,60,-99.99,,,-99.99,93.0,meteohub,2013-03-21 20:52:00,
2013-03-21 16:57:00,36.5,24.3,29.65,East,100,0.0,5.0,61,-99.99,,,-99.99,90.0,meteohub,2013-03-21 20:57:00,
2013-03-21 17:03:00,36.3,25.0,29.65,ESE,121,0.0,5.0,63,-99.99,,,-99.99,84.0,meteohub,2013-03-21 21:03:00,
2013-03-21 17:08:00,36.1,25.5,29.65,ESE,121,0.0,3.0,65,-99.99,,,-99.99,81.0,meteohub,2013-03-21 21:08:00,
2013-03-21 17:13:00,36.0,25.7,29.65,ESE,121,0.0,2.0,66,-99.99,,,-99.99,81.0,meteohub,2013-03-21 21:13:00,
2013-03-21 17:18:00,36.0,25.3,29.65,SE,129,0.0,2.0,65,-99.99,,,-99.99,70.0,meteohub,2013-03-21 21:18:00,
2013-03-21 17:23:00,35.8,25.5,29.65,SE,129,0.0,2.0,66,-99.99,,,-99.99,70.0,meteohub,2013-03-21 21:23:00,
2013-03-21 17:28:00,35.6,25.3,29.65,SE,129,0.0,2.0,66,-99.99,,,-99.99,69.0,meteohub,2013-03-21 21:28:00,
2013-03-21 17:33:00,35.4,25.5,29.65,SE,129,0.0,2.0,67,-99.99,,,-99.99,72.0,meteohub,2013-03-21 21:33:00,
2013-03-21 17:38:00,35.4,25.9,29.65,SE,129,0.0,2.0,68,-99.99,,,-99.99,58.0,meteohub,2013-03-21 21:38:00,
2013-03-21 17:44:00,35.4,26.6,29.65,SE,129,0.0,2.0,70,-99.99,,,-99.99,42.0,meteohub,2013-03-21 21:44:00,
2013-03-21 17:49:00,35.2,27.5,29.65,ENE,73,0.0,2.0,73,-99.99,,,-99.99,35.0,meteohub,2013-03-21 21:49:00,
2013-03-21 17:54:00,34.9,27.7,29.65,ENE,76,0.0,3.0,75,-99.99,,,-99.99,39.0,meteohub,2013-03-21 21:54:00,
2013-03-21 17:59:00,34.5,27.7,29.65,ENE,59,1.0,3.0,76,-99.99,,,-99.99,42.0,meteohub,2013-03-21 21:59:00,
2013-03-21 18:04:00,34.3,27.9,29.65,NE,49,0.0,3.0,77,-99.99,,,-99.99,32.0,meteohub,2013-03-21 22:04:00,
2013-03-21 18:10:00,34.0,28.2,29.65,East,100,2.0,4.0,79,-99.99,,,-99.99,18.0,meteohub,2013-03-21 22:10:00,
2013-03-21 18:15:00,33.6,27.9,29.64,NE,44,0.0,4.0,79,-99.99,,,-99.99,16.0,meteohub,2013-03-21 22:15:00,
2013-03-21 18:20:00,33.4,28.2,29.64,ESE,114,0.0,3.0,81,-99.99,,,-99.99,16.0,meteohub,2013-03-21 22:20:00,
2013-03-21 18:25:00,33.3,28.0,29.64,ESE,103,1.0,5.0,81,-99.99,,,-99.99,14.0,meteohub,2013-03-21 22:25:00,
2013-03-21 18:30:00,33.3,28.4,29.64,ESE,103,0.0,5.0,82,-99.99,,,-99.99,12.0,meteohub,2013-03-21 22:30:00,
2013-03-21 18:35:00,33.1,28.4,29.64,East,101,2.0,5.0,83,-99.99,,,-99.99,7.0,meteohub,2013-03-21 22:35:00,
2013-03-21 18:40:00,33.1,28.8,29.64,East,101,0.0,2.0,84,-99.99,,,-99.99,5.0,meteohub,2013-03-21 22:40:00,
2013-03-21 18:46:00,32.7,28.4,29.64,East,101,0.0,2.0,84,-99.99,,,-99.99,0.0,meteohub,2013-03-21 22:46:00,
2013-03-21 18:51:00,32.7,28.8,29.64,East,101,0.0,2.0,85,-99.99,,,-99.99,0.0,meteohub,2013-03-21 22:51:00,
2013-03-21 18:56:00,32.5,28.6,29.63,East,101,0.0,2.0,85,-99.99,,,-99.99,0.0,meteohub,2013-03-21 22:56:00,
2013-03-21 19:01:00,32.5,28.6,29.63,East,101,0.0,1.0,85,-99.99,,,-99.99,0.0,meteohub,2013-03-21 23:01:00,
2013-03-21 19:07:00,32.5,28.6,29.63,East,101,0.0,1.0,85,-99.99,,,-99.99,0.0,meteohub,2013-03-21 23:07:00,
2013-03-21 19:12:00,32.5,28.6,29.63,East,101,0.0,0.0,85,-99.99,,,-99.99,0.0,meteohub,2013-03-21 23:12:00,
2013-03-21 19:17:00,32.4,28.4,29.63,East,101,0.0,1.0,85,-99.99,,,-99.99,0.0,meteohub,2013-03-21 23:17:00,
2013-03-21 19:22:00,32.5,28.8,29.63,East,101,0.0,1.0,86,-99.99,,,-99.99,0.0,meteohub,2013-03-21 23:22:00,
2013-03-21 19:27:00,32.5,28.8,29.63,East,101,0.0,2.0,86,-99.99,,,-99.99,0.0,meteohub,2013-03-21 23:27:00,
2013-03-21 19:32:00,32.5,29.1,29.63,East,101,0.0,2.0,87,-99.99,,,-99.99,0.0,meteohub,2013-03-21 23:32:00,
2013-03-21 19:37:00,32.4,28.9,29.63,East,101,0.0,2.0,87,-99.99,,,-99.99,0.0,meteohub,2013-03-21 23:37:00,
2013-03-21 19:42:00,32.4,29.1,29.63,East,101,0.0,1.0,88,-99.99,,,-99.99,0.0,meteohub,2013-03-21 23:42:00,
2013-03-21 19:48:00,32.4,29.1,29.63,East,101,0.0,1.0,88,-99.99,,,-99.99,0.0,meteohub,2013-03-21 23:48:00,
2013-03-21 19:53:00,32.4,29.1,29.63,East,101,1.0,0.0,88,-99.99,,,-99.99,0.0,meteohub,2013-03-21 23:53:00,
2013-03-21 19:58:00,32.4,29.5,29.63,East,101,0.0,2.0,89,-99.99,,,-99.99,0.0,meteohub,2013-03-21 23:58:00,
2013-03-21 20:03:00,32.2,29.3,29.63,ESE,108,0.0,2.0,89,-99.99,,,-99.99,0.0,meteohub,2013-03-22 00:03:00,
2013-03-21 20:08:00,32.2,29.3,29.62,ESE,108,0.0,2.0,89,-99.99,,,-99.99,0.0,meteohub,2013-03-22 00:08:00,
2013-03-21 20:14:00,32.2,29.3,29.62,ESE,108,0.0,1.0,89,-99.99,,,-99.99,0.0,meteohub,2013-03-22 00:14:00,
2013-03-21 20:19:00,32.0,29.1,29.62,ESE,108,0.0,1.0,89,-99.99,,,-99.99,0.0,meteohub,2013-03-22 00:19:00,
2013-03-21 20:24:00,31.8,28.9,29.62,ESE,108,0.0,1.0,89,-99.99,,,-99.99,0.0,meteohub,2013-03-22 00:24:00,
2013-03-21 20:29:00,31.8,29.3,29.62,ESE,108,0.0,0.0,90,-99.99,,,-99.99,0.0,meteohub,2013-03-22 00:29:00,
2013-03-21 20:34:00,31.8,29.3,29.61,ESE,108,0.0,0.0,90,-99.99,,,-99.99,0.0,meteohub,2013-03-22 00:34:00,
2013-03-21 20:39:00,31.6,29.1,29.61,ESE,108,0.0,0.0,90,-99.99,,,-99.99,0.0,meteohub,2013-03-22 00:39:00,
2013-03-21 20:44:00,31.5,29.1,29.61,ESE,108,0.0,0.0,91,-99.99,,,-99.99,0.0,meteohub,2013-03-22 00:44:00,
2013-03-21 20:49:00,31.5,29.5,29.61,ESE,108,0.0,1.0,92,-99.99,,,-99.99,0.0,meteohub,2013-03-22 00:49:00,
2013-03-21 20:54:00,31.5,29.5,29.61,ESE,108,0.0,1.0,92,-99.99,,,-99.99,0.0,meteohub,2013-03-22 00:54:00,
2013-03-21 20:59:00,31.3,29.3,29.62,ESE,108,0.0,1.0,92,-99.99,,,-99.99,0.0,meteohub,2013-03-22 00:59:00,
2013-03-21 21:04:00,31.1,29.1,29.62,ESE,108,0.0,1.0,92,-99.99,,,-99.99,0.0,meteohub,2013-03-22 01:04:00,
2013-03-21 21:09:00,30.9,28.9,29.62,ESE,108,0.0,1.0,92,-99.99,,,-99.99,0.0,meteohub,2013-03-22 01:09:00,
2013-03-21 21:14:00,30.9,29.1,29.62,ESE,108,0.0,1.0,93,-99.99,,,-99.99,0.0,meteohub,2013-03-22 01:14:00,
2013-03-21 21:20:00,30.9,29.1,29.62,ESE,108,0.0,0.0,93,-99.99,,,-99.99,0.0,meteohub,2013-03-22 01:20:00,
2013-03-21 21:25:00,30.9,29.1,29.62,ESE,108,0.0,0.0,93,-99.99,,,-99.99,0.0,meteohub,2013-03-22 01:25:00,
2013-03-21 21:30:00,30.9,29.1,29.62,ESE,108,0.0,0.0,93,-99.99,,,-99.99,0.0,meteohub,2013-03-22 01:30:00,
2013-03-21 21:35:00,30.7,28.9,29.62,ESE,108,0.0,0.0,93,-99.99,,,-99.99,0.0,meteohub,2013-03-22 01:35:00,
2013-03-21 21:40:00,30.6,28.8,29.62,ESE,108,0.0,1.0,93,-99.99,,,-99.99,0.0,meteohub,2013-03-22 01:40:00,
2013-03-21 21:45:00,30.7,29.3,29.61,ESE,108,0.0,1.0,94,-99.99,,,-99.99,0.0,meteohub,2013-03-22 01:45:00,
2013-03-21 21:51:00,30.7,29.3,29.61,ESE,108,0.0,1.0,94,-99.99,,,-99.99,0.0,meteohub,2013-03-22 01:51:00,
2013-03-21 21:56:00,30.7,29.3,29.61,ESE,107,0.0,0.0,94,-99.99,,,-99.99,0.0,meteohub,2013-03-22 01:56:00,
2013-03-21 22:01:00,30.6,29.1,29.61,ESE,108,0.0,0.0,94,-99.99,,,-99.99,0.0,meteohub,2013-03-22 02:01:00,
2013-03-21 22:06:00,30.7,29.5,29.61,ESE,108,1.0,1.0,95,-99.99,,,-99.99,0.0,meteohub,2013-03-22 02:06:00,
2013-03-21 22:11:00,31.3,30.0,29.60,South,184,1.0,2.0,95,-99.99,,,-99.99,0.0,meteohub,2013-03-22 02:11:00,
2013-03-21 22:16:00,31.5,30.2,29.60,SSW,205,1.0,2.0,95,-99.99,,,-99.99,0.0,meteohub,2013-03-22 02:16:00,
2013-03-21 22:21:00,31.6,30.4,29.60,SSW,209,1.0,2.0,95,-99.99,,,-99.99,0.0,meteohub,2013-03-22 02:21:00,
2013-03-21 22:26:00,31.6,30.2,29.60,SW,217,0.0,3.0,94,-99.99,,,-99.99,0.0,meteohub,2013-03-22 02:26:00,
2013-03-21 22:32:00,31.6,30.2,29.60,SW,217,0.0,3.0,94,-99.99,,,-99.99,0.0,meteohub,2013-03-22 02:32:00,
2013-03-21 22:37:00,31.6,30.2,29.60,SW,217,0.0,3.0,94,-99.99,,,-99.99,0.0,meteohub,2013-03-22 02:37:00,
2013-03-21 22:42:00,31.6,30.2,29.60,SW,217,1.0,2.0,94,-99.99,,,-99.99,0.0,meteohub,2013-03-22 02:42:00,
2013-03-21 22:47:00,31.6,30.2,29.60,SW,217,0.0,2.0,94,-99.99,,,-99.99,0.0,meteohub,2013-03-22 02:47:00,
2013-03-21 22:52:00,31.6,29.8,29.60,SW,223,0.0,1.0,93,-99.99,,,-99.99,0.0,meteohub,2013-03-22 02:52:00,
2013-03-21 22:57:00,31.6,29.8,29.60,SW,223,0.0,2.0,93,-99.99,,,-99.99,0.0,meteohub,2013-03-22 02:57:00,
2013-03-21 23:03:00,31.6,29.8,29.60,SW,226,1.0,2.0,93,-99.99,,,-99.99,0.0,meteohub,2013-03-22 03:03:00,
2013-03-21 23:08:00,31.6,29.7,29.59,SSW,213,0.0,2.0,92,-99.99,,,-99.99,0.0,meteohub,2013-03-22 03:08:00,
2013-03-21 23:13:00,31.6,29.7,29.59,SW,227,1.0,2.0,92,-99.99,,,-99.99,0.0,meteohub,2013-03-22 03:13:00,
2013-03-21 23:18:00,31.6,29.7,29.59,SW,236,1.0,2.0,92,-99.99,,,-99.99,0.0,meteohub,2013-03-22 03:18:00,
2013-03-21 23:23:00,31.8,29.8,29.59,WSW,245,0.0,2.0,92,-99.99,,,-99.99,0.0,meteohub,2013-03-22 03:23:00,
2013-03-21 23:28:00,31.6,29.7,29.59,WSW,245,0.0,2.0,92,-99.99,,,-99.99,0.0,meteohub,2013-03-22 03:28:00,
2013-03-21 23:33:00,31.8,29.8,29.59,WSW,246,2.0,2.0,92,-99.99,,,-99.99,0.0,meteohub,2013-03-22 03:33:00,
2013-03-21 23:39:00,31.8,29.8,29.59,WSW,246,0.0,3.0,92,-99.99,,,-99.99,0.0,meteohub,2013-03-22 03:39:00,
2013-03-21 23:44:00,31.6,29.7,29.58,WSW,246,0.0,3.0,92,-99.99,,,-99.99,0.0,meteohub,2013-03-22 03:44:00,
2013-03-21 23:49:00,31.6,29.7,29.59,WSW,246,0.0,3.0,92,-99.99,,,-99.99,0.0,meteohub,2013-03-22 03:49:00,
2013-03-21 23:54:00,31.6,29.3,29.58,WSW,257,1.0,2.0,91,-99.99,,,-99.99,0.0,meteohub,2013-03-22 03:54:00,
2013-03-21 23:59:00,31.8,29.5,29.58,WSW,257,1.0,4.0,91,-99.99,,,-99.99,0.0,meteohub,2013-03-22 03:59:00,